FLOCK 3P-43

Last updated on Wed Feb 14 2018 16:20:31 GMT+0000 (Coordinated Universal Time)

1 42007U 17008BM 18044.88645530 .00000769 00000-0 34947-4 0 9998 2 42007 97.4665 110.4802 0009606 88.5277 271.7060 15.23739593 55332
UTC large
Height (km)
Speed (km/s)
/
Latitude / Longitude
Inclination (degrees)
Orbital Period (minutes)
Azimuth
Elevation
Range (km)
Doppler Factor

Next 0 passes for location: London (51.5072 / 0.1276)

Sorry there are no passes over London.